Wind_Speed
21 20 19 16 13 10 7 5 2 1 2 4 5 7 8 9 11 12 14 14 15 16 16 16 16 16 16 16 16 15 15 14 13 11 10 9 8 7 6 5 5 3 3 2
23 22 20 18 16 13 11 8 6 3 1 1 2 4 6 8 9 10 11 12 13 14 15 15 16 16 15 15 15 14 13 13 12 11 10 10 9 7 6 5 5 4 3 3
23 23 22 21 18 16 14 11 9 7 5 2 1 2 4 5 7 8 9 10 11 12 13 13 14 15 14 14 14 14 14 13 12 11 10 10 9 8 7 6 5 5 4 4
26 25 24 22 20 17 16 14 12 10 9 6 5 3 3 4 6 8 9 10 10 10 11 12 13 14 14 13 13 14 13 12 12 11 10 9 9 8 8 7 6 6 6 5
27 26 25 23 21 20 19 17 16 14 13 11 8 6 4 4 5 6 8 9 9 9 10 10 11 12 13 14 13 13 12 12 11 12 11 9 9 9 9 8 7 6 6 7
29 27 25 25 24 23 22 20 19 18 17 14 11 9 7 6 6 6 6 7 8 9 9 9 10 11 12 12 12 12 12 12 12 11 11 10 10 10 10 9 8 8 8 7
31 29 28 27 26 26 25 23 22 21 20 17 15 13 10 8 7 7 7 7 7 8 9 8 9 10 11 11 12 12 13 13 13 12 12 11 11 11 11 10 9 9 9 9
33 31 30 29 28 27 26 25 24 23 21 18 17 16 13 10 9 8 8 7 7 7 8 8 9 10 10 11 11 12 12 13 13 13 12 12 11 12 12 11 11 11 11 10
34 32 31 30 29 29 28 27 25 25 24 21 20 17 15 13 11 9 8 8 8 8 8 8 9 10 11 11 11 12 12 13 13 12 12 12 12 11 11 11 11 12 12 12
35 34 33 33 32 31 30 28 27 26 25 23 21 19 16 14 12 11 10 9 9 8 9 9 9 10 11 11 11 12 13 13 14 14 12 12 12 11 11 12 12 13 13 13
36 36 35 34 34 32 31 30 29 27 26 24 21 18 16 15 14 13 12 11 9 10 10 10 10 11 11 12 12 12 13 13 13 14 13 12 12 12 12 13 13 13 13 13
36 36 36 36 34 33 32 31 30 29 26 24 23 19 17 16 15 14 13 11 10 10 11 11 11 11 12 12 13 13 13 14 13 13 14 14 13 13 13 14 14 14 14 13
37 37 37 36 36 35 34 32 31 30 28 26 24 21 18 17 16 15 13 11 10 10 11 11 11 11 12 13 13 14 14 15 15 14 14 15 14 14 14 14 14 14 14 13
38 39 38 37 35 34 34 33 32 30 29 27 24 21 20 18 17 16 14 13 12 12 12 12 12 12 12 13 14 15 16 16 16 15 15 15 15 15 15 15 14 14 14 13
39 39 38 37 36 35 35 34 33 32 29 28 26 24 21 20 18 17 16 15 14 14 14 14 14 14 14 15 15 16 16 16 16 16 16 16 16 16 16 16 15 15 15 14
39 39 38 38 37 36 36 35 34 33 31 29 28 26 23 21 21 19 18 16 16 16 16 16 16 15 15 15 16 16 16 16 17 17 17 16 16 17 16 16 16 16 15 15
38 39 38 38 37 37 38 36 35 34 32 30 28 26 24 23 21 20 19 18 17 17 18 18 18 18 17 17 17 17 17 17 18 18 18 17 17 17 17 17 17 17 16 17
37 37 37 37 37 39 37 36 35 35 33 30 29 27 26 24 23 22 21 20 20 20 20 20 20 20 19 19 18 18 18 18 19 19 19 18 17 18 18 18 18 18 18 17
37 37 37 37 37 38 37 36 36 35 34 31 30 28 27 25 24 23 22 22 22 21 21 21 21 20 20 20 20 19 19 19 19 20 19 19 18 18 18 19 19 19 19 18
38 38 38 38 38 38 37 36 35 34 34 31 29 27 27 27 26 24 23 23 23 22 22 23 23 22 22 21 21 21 20 20 20 20 19 19 19 19 19 19 19 19 19 19
39 39 39 38 38 37 36 36 34 35 32 30 30 29 27 27 26 24 24 24 24 24 24 24 24 24 24 23 21 21 21 21 21 20 19 19 19 19 19 20 20 20 20 19
39 40 40 39 39 38 36 35 35 33 31 30 30 30 28 27 26 26 25 25 25 25 25 26 26 25 24 24 24 22 21 21 21 20 20 20 20 20 20 21 21 20 20 20
39 39 39 39 39 37 36 36 35 33 32 31 31 30 30 28 28 28 27 27 27 27 26 27 27 26 25 26 25 24 24 23 23 21 21 21 21 21 22 22 21 21 21 20
38 38 37 37 37 37 35 34 34 33 32 31 31 31 30 30 30 29 29 29 29 27 27 28 27 27 27 27 25 24 23 22 22 22 21 21 22 22 22 22 22 22 22 22
38 37 37 37 36 36 34 33 33 33 32 32 31 32 32 31 31 30 29 29 28 29 29 29 29 27 27 25 23 23 23 22 22 21 21 21 22 22 22 22 22 22 22 22
38 38 37 37 36 35 34 33 32 32 33 32 32 32 31 32 32 32 30 29 29 28 28 28 27 27 26 25 24 23 23 22 22 21 21 22 22 22 22 22 22 23 23 23
Wind_Direction
214 214 214 215 212 210 211 217 217 129 79 66 59 51 45 41 36 35 36 38 41 42 43 42 42 43 44 44 44 45 46 46 46 46 46 44 44 45 47 44 35 28 20 9
214 214 215 216 215 215 217 221 222 228 237 49 45 37 39 34 36 31 29 31 34 40 39 37 35 36 38 40 39 40 41 41 41 40 40 37 35 33 33 30 16 2 354 339
216 215 216 217 218 219 221 222 225 240 248 256 314 0 15 27 32 28 25 24 27 34 34 33 31 30 30 32 33 33 31 32 32 32 31 28 25 19 13 10 357 343 331 320
216 216 217 218 220 223 223 223 226 236 249 252 269 290 331 357 12 21 20 17 22 29 31 29 26 26 27 28 27 29 28 28 26 24 22 17 11 7 2 357 349 338 326 316
217 218 219 219 222 226 226 227 231 238 247 248 256 271 292 315 345 2 8 10 14 22 25 26 23 23 23 24 23 24 22 18 14 16 16 12 6 2 356 352 346 335 322 312
218 218 219 219 221 225 227 230 234 238 243 243 250 260 273 294 315 334 347 352 1 10 15 17 16 14 14 17 18 17 16 13 8 10 8 4 360 357 356 351 341 329 322 314
217 218 219 219 221 224 228 231 234 238 240 242 248 257 267 280 292 310 324 334 348 356 3 6 5 4 5 10 12 12 12 9 4 2 1 359 352 349 349 345 336 327 321 315
218 218 220 221 223 226 230 234 237 240 242 245 248 254 264 271 281 295 310 319 332 344 352 358 356 353 356 1 3 4 5 6 3 359 356 353 347 340 341 339 333 329 321 312
220 221 221 223 224 227 230 233 238 241 245 246 249 252 258 261 270 284 300 307 318 331 338 342 345 346 347 348 351 353 354 356 356 354 353 348 344 338 337 336 331 330 324 316
221 221 221 223 224 226 228 232 235 239 244 246 250 252 255 257 265 279 291 298 305 315 324 329 332 336 337 339 340 342 345 346 346 347 344 342 339 337 333 332 329 328 323 315
221 222 221 223 225 227 228 229 233 239 243 247 251 250 253 258 263 272 283 290 295 303 311 315 321 324 326 327 330 332 336 337 337 341 340 338 337 337 333 331 328 324 320 315
222 223 222 224 226 227 229 231 235 238 243 248 251 249 250 255 261 268 277 282 288 297 303 308 310 313 315 317 319 322 325 328 333 335 338 339 336 336 333 329 327 325 320 316
223 223 222 223 225 226 229 231 234 238 242 247 250 249 251 253 259 265 270 276 282 293 299 303 305 309 311 312 313 314 318 323 326 328 331 333 332 331 330 330 330 329 328 324
224 225 225 226 228 229 230 232 235 238 241 247 249 249 250 252 256 261 264 270 278 286 291 297 301 305 306 309 311 312 314 317 321 323 323 324 324 323 322 324 327 328 328 324
223 225 226 226 227 228 231 233 236 239 243 247 248 249 252 253 254 256 259 263 271 278 286 290 296 301 304 306 308 311 312 314 316 318 317 316 316 316 318 320 323 325 325 322
224 226 226 226 227 228 230 232 234 239 243 246 248 246 250 251 252 254 257 261 266 273 282 288 294 299 301 303 305 305 307 311 311 312 312 312 312 312 314 316 317 318 319 318
225 227 228 228 228 229 230 231 234 238 242 246 246 246 247 248 250 253 256 259 263 270 279 285 291 295 295 298 300 302 302 305 306 306 307 308 308 309 310 312 314 314 314 313
225 227 229 230 229 231 231 231 234 237 240 243 245 246 247 247 249 251 252 257 263 269 275 282 288 291 292 294 295 295 295 298 300 302 303 303 304 305 306 308 309 310 310 310
225 227 228 230 231 232 231 231 233 236 239 242 244 245 246 247 249 251 253 256 261 267 272 278 283 286 290 290 290 290 291 293 294 297 298 299 301 303 304 304 306 307 308 308
224 226 228 230 231 232 233 234 235 238 240 241 244 246 246 246 249 252 257 260 263 268 273 277 282 285 287 288 289 287 287 289 291 294 295 296 298 300 302 304 305 305 307 308
224 225 228 230 233 235 235 236 237 239 240 241 243 246 247 247 249 251 256 261 264 269 272 276 279 282 283 284 286 285 284 288 290 291 291 295 297 298 300 304 305 304 306 307
225 226 228 230 233 236 236 237 239 241 242 242 243 245 247 248 248 251 255 261 265 267 270 273 275 278 279 280 282 283 282 284 287 289 290 292 295 297 300 303 305 304 304 305
225 227 230 232 234 236 238 239 240 241 242 243 243 245 247 248 249 252 256 261 265 266 269 272 272 271 275 277 279 281 281 280 282 285 287 289 293 297 299 300 302 304 303 303
226 228 230 232 233 235 237 239 241 241 242 242 242 244 246 248 251 255 258 261 264 269 270 271 271 270 273 275 276 279 279 279 280 282 284 288 291 294 297 297 297 300 303 302
227 228 230 232 233 235 237 239 241 241 240 241 242 244 246 249 250 254 258 261 265 269 270 271 274 275 273 273 274 276 277 278 281 283 284 286 289 292 294 295 295 299 302 303
229 230 231 233 233 234 235 238 240 240 240 240 243 247 248 249 251 254 257 261 264 267 270 272 273 273 272 272 273 274 275 276 279 282 283 285 287 289 291 292 294 297 300 301
Height
5918 5921 5923 5925 5927 5929 5931 5932 5933 5934 5935 5935 5935 5935 5935 5935 5934 5932 5931 5929 5927 5925 5923 5922 5920 5919 5917 5915 5914 5912 5911 5910 5909 5908 5907 5906 5905 5904 5903 5903 5902 5902 5901 5900
5916 5919 5922 5923 5925 5928 5930 5931 5933 5934 5935 5935 5935 5936 5936 5936 5935 5934 5932 5930 5929 5927 5926 5924 5922 5921 5919 5917 5916 5914 5913 5911 5910 5909 5908 5908 5906 5905 5904 5903 5903 5902 5901 5901
5913 5917 5919 5921 5924 5926 5928 5931 5932 5933 5934 5935 5936 5936 5937 5936 5936 5935 5933 5932 5930 5929 5927 5925 5924 5922 5920 5919 5917 5916 5914 5913 5912 5910 5909 5908 5907 5906 5905 5904 5903 5902 5901 5900
5909 5913 5916 5919 5922 5924 5927 5929 5931 5932 5933 5934 5936 5936 5937 5936 5936 5935 5934 5933 5932 5930 5928 5927 5925 5923 5922 5920 5918 5917 5916 5914 5913 5911 5910 5909 5908 5906 5905 5904 5902 5901 5900 5900
5906 5909 5913 5916 5920 5922 5925 5927 5929 5930 5932 5933 5934 5935 5937 5936 5936 5935 5935 5934 5932 5931 5929 5928 5926 5925 5923 5921 5920 5918 5917 5915 5914 5912 5910 5909 5908 5906 5905 5903 5902 5901 5900 5899
5902 5906 5910 5914 5917 5920 5922 5925 5926 5928 5929 5931 5933 5934 5935 5935 5936 5935 5935 5934 5933 5931 5930 5928 5927 5925 5924 5922 5920 5919 5917 5915 5914 5912 5910 5909 5908 5906 5905 5903 5902 5900 5899 5898
5898 5902 5906 5910 5912 5916 5919 5922 5924 5925 5926 5929 5931 5932 5934 5934 5934 5934 5934 5933 5932 5931 5930 5928 5927 5926 5924 5922 5921 5919 5917 5915 5913 5911 5909 5908 5907 5906 5904 5902 5901 5899 5898 5897
5893 5898 5902 5906 5909 5912 5915 5918 5921 5923 5924 5927 5928 5929 5932 5933 5933 5933 5933 5932 5931 5930 5929 5928 5927 5926 5924 5923 5921 5919 5917 5916 5913 5911 5909 5907 5906 5905 5903 5902 5900 5898 5897 5895
5888 5894 5898 5902 5905 5909 5911 5914 5917 5920 5921 5924 5925 5927 5929 5930 5931 5931 5931 5931 5930 5930 5929 5927 5926 5925 5924 5922 5921 5919 5917 5915 5913 5911 5909 5907 5905 5904 5902 5900 5899 5897 5895 5894
5883 5889 5893 5897 5900 5903 5907 5911 5913 5915 5917 5919 5922 5924 5926 5928 5929 5929 5929 5929 5929 5928 5928 5927 5925 5924 5923 5922 5920 5918 5917 5915 5913 5911 5908 5906 5904 5902 5901 5899 5898 5896 5893 5892
5877 5883 5888 5892 5895 5899 5903 5906 5908 5911 5914 5916 5918 5923 5924 5925 5926 5927 5927 5927 5927 5927 5926 5925 5924 5923 5922 5920 5919 5917 5915 5914 5911 5909 5907 5905 5903 5901 5899 5898 5896 5894 5891 5889
5871 5876 5881 5886 5891 5894 5898 5901 5904 5908 5910 5912 5915 5921 5921 5922 5923 5924 5924 5925 5925 5924 5924 5923 5923 5922 5920 5919 5917 5916 5914 5912 5909 5908 5906 5904 5902 5900 5898 5896 5894 5892 5889 5887
5865 5870 5875 5880 5885 5889 5892 5896 5899 5903 5905 5907 5910 5917 5917 5918 5919 5920 5921 5922 5922 5922 5921 5921 5920 5919 5918 5917 5915 5914 5912 5910 5909 5907 5905 5903 5901 5899 5897 5895 5893 5890 5888 5885
5858 5863 5869 5875 5879 5884 5887 5891 5894 5898 5900 5903 5906 5910 5913 5914 5916 5917 5918 5919 5919 5919 5919 5918 5917 5917 5916 5914 5913 5911 5910 5909 5907 5905 5904 5902 5900 5898 5896 5893 5891 5889 5886 5884
5851 5856 5862 5868 5873 5878 5882 5886 5889 5892 5895 5899 5902 5905 5908 5910 5911 5913 5914 5915 5915 5915 5915 5915 5914 5913 5912 5911 5910 5909 5907 5906 5904 5903 5901 5899 5897 5895 5893 5891 5889 5887 5885 5883
5844 5850 5856 5861 5866 5871 5875 5879 5883 5887 5890 5893 5896 5900 5903 5904 5906 5908 5909 5911 5911 5911 5911 5911 5910 5909 5909 5908 5907 5906 5904 5903 5901 5900 5898 5896 5894 5892 5891 5889 5886 5884 5883 5880
5838 5844 5849 5854 5859 5863 5867 5873 5877 5880 5884 5888 5891 5895 5897 5899 5901 5903 5905 5906 5907 5907 5907 5907 5906 5906 5905 5904 5903 5902 5901 5899 5898 5897 5895 5893 5891 5889 5888 5886 5883 5882 5880 5878
5832 5837 5842 5847 5852 5856 5864 5867 5871 5874 5878 5882 5885 5889 5892 5894 5896 5898 5899 5901 5902 5902 5902 5902 5901 5901 5900 5900 5899 5897 5896 5895 5894 5892 5891 5889 5888 5886 5884 5882 5880 5878 5876 5874
5826 5831 5835 5840 5844 5849 5855 5860 5864 5868 5872 5876 5880 5883 5886 5888 5890 5892 5893 5895 5896 5897 5897 5896 5896 5896 5895 5895 5894 5893 5892 5891 5889 5888 5886 5885 5884 5882 5880 5878 5876 5874 5873 5871
5819 5824 5829 5833 5837 5842 5849 5854 5857 5862 5865 5870 5873 5877 5880 5882 5884 5887 5888 5889 5890 5890 5891 5891 5891 5890 5890 5889 5888 5888 5887 5886 5885 5884 5882 5881 5880 5878 5877 5875 5872 5871 5869 5866
5812 5816 5822 5827 5831 5836 5842 5846 5851 5856 5860 5864 5867 5870 5873 5875 5879 5881 5882 5883 5884 5884 5885 5885 5884 5884 5884 5884 5883 5882 5881 5880 5880 5879 5878 5877 5875 5874 5872 5870 5868 5866 5865 5862
5805 5810 5815 5820 5825 5831 5835 5839 5844 5848 5853 5857 5860 5863 5866 5869 5871 5873 5875 5876 5877 5878 5879 5878 5878 5878 5878 5877 5877 5875 5875 5875 5874 5874 5872 5872 5870 5869 5868 5866 5864 5862 5860 5858
5798 5805 5810 5815 5821 5825 5829 5833 5837 5841 5846 5849 5853 5856 5859 5861 5864 5866 5868 5869 5870 5870 5871 5871 5870 5871 5870 5870 5870 5869 5869 5869 5868 5868 5867 5866 5865 5864 5863 5861 5859 5858 5856 5854
5792 5797 5803 5808 5813 5818 5822 5826 5830 5834 5838 5842 5845 5849 5851 5854 5856 5858 5860 5862 5862 5862 5862 5863 5862 5862 5862 5862 5862 5862 5862 5861 5862 5861 5861 5860 5860 5859 5857 5856 5854 5853 5851 5849
5785 5791 5795 5800 5806 5810 5815 5819 5823 5827 5831 5834 5838 5841 5844 5846 5849 5851 5852 5853 5854 5855 5855 5855 5855 5855 5855 5854 5854 5855 5855 5855 5855 5855 5855 5854 5854 5853 5852 5851 5849 5848 5846 5844
5779 5784 5789 5794 5799 5804 5808 5812 5816 5820 5823 5827 5830 5833 5836 5838 5840 5842 5844 5845 5846 5846 5846 5846 5846 5847 5847 5847 5847 5848 5848 5849 5849 5849 5848 5848 5848 5847 5846 5845 5843 5842 5840 5838